[[{"header":{"parameterUnit":"m.s-1","parameterCategory":1,"la1":30.2991,"la2":30.254,"lo1":-89.0895,"lo2":-89.0444,"dy":0.0017,"dx":0.0017,"nx":28,"ny":28,"refTime":"2024-02-06T03:00:00:Z","depth":0,"parameterNumber":2,"parameterNumberName":"U-component_of_WINDS"},"data":[0,0,0,0,0,0,0,0,0,0,0,0,0,0,0,0,0,0,0,0,0,0,0,0,0,0,0,0,0,0,0,0,0,0,0,0,0,0,0,0,0,0,0,0,0,0,0,0,0,0,0,0,0,0,0,0,0,0,0.8943,0.8943,0,0.8969,0.8969,0.8969,0.8961,0.896,0.8959,0.8959,0.8984,0.8985,0.8986,0,0,0,0,0,0,0,0,0,0,0,0,0,0.8885,0.8886,0.8943,0.8943,0.8944,0.8969,0.8969,0.897,0.8961,0.896,0.8959,0.8959,0.8983,0.8985,0.8986,0,0,0,0,0,0,0,0,0,0,0,0,0,0.8911,0.8887,0.8943,0.8942,0.8943,0.8969,0.8969,0.897,0.8961,0.896,0.8959,0.8958,0.8983,0.8984,0.8986,0.9014,0,0,0.8992,0.8992,0,0,0,0,0,0,0,0,0.8909,0.8913,0.8942,0.8942,0.8943,0.8961,0.8958,0.8984,0.8961,0.8954,0.8959,0.8958,0.8976,0.8979,0.8985,0.9015,0.9016,0.8992,0.8993,0.8994,0.8994,0,0,0,0,0,0,0,0.8907,0.8911,0.8953,0.8943,0.8943,0.894,0.8943,0.8963,0.8969,0.8954,0.8954,0.8957,0.8976,0.8984,0.8986,0.9017,0.8992,0.8993,0.8994,0.8995,0.9072,0.9073,0,0,0,0,0,0,0.8906,0.891,0.8952,0.8954,0.8924,0.8942,0.8945,0.8956,0.8969,0.8971,0.8958,0.8957,0.8981,0.8984,0.8987,0.9021,0.8994,0.8995,0.8996,0.9071,0.9072,0.9073,0,0,0,0,0,0,0.8904,0.8909,0.8951,0.8932,0.8937,0.8944,0.8956,0.8957,0.8964,0.8972,0.8973,0.8964,0.898,0.8984,0.9008,0.9022,0.8996,0.8998,0.907,0.9071,0.9073,0.909,0,0,0,0,0,0,0.8903,0.8909,0.892,0.8932,0.8938,0.8972,0.8957,0.8958,0.8967,0.8966,0.8978,0.8979,0.898,0.9005,0.901,0.9024,0.8999,0.9069,0.9071,0.9072,0.9088,0.9091,0.9095,0,0,0,0,0,0.8901,0.8923,0.892,0.8926,0.8952,0.8973,0.8976,0.8977,0.8968,0.8979,0.8985,0.8979,0.902,0.9008,0.9012,0.9027,0.9068,0.907,0.9072,0.9086,0.9091,0.9094,0,0,0,0,0,0,0.8911,0.8924,0.8922,0.8949,0.896,0.8971,0.8985,0.8982,0.8995,0.8994,0.8994,0.8997,0.9021,0.9027,0.9013,0.9056,0.9042,0.9046,0.9051,0.9056,0.9059,0.9057,0.9,0,0,0,0,0,0.8916,0.8933,0.8943,0.8966,0.8972,0.8978,0.8987,0.8987,0.8998,0.9003,0.901,0.9021,0.9036,0.9046,0.9061,0.9089,0.9092,0.9102,0.9105,0.9108,0.911,0.9127,0.9131,0.9081,0.9081,0.9081,0,0,0.8927,0.8937,0.8947,0.8968,0.8977,0.8994,0.8982,0.9,0.9012,0.9005,0.9028,0.9034,0.9046,0.9073,0.9084,0.9078,0.9125,0.911,0.9113,0.9114,0.9129,0.9134,0.9138,0.9082,0.9082,0.9082,0,0,0.8956,0.8965,0.8985,0.8995,0.9009,0.9012,0.9017,0.903,0.9034,0.9057,0.9053,0.9068,0.9094,0.9103,0.9111,0.9146,0.9141,0.9151,0.9168,0.9184,0.9188,0.9192,0.9204,0.9209,0.9154,0.9154,0.9154,0,0.8968,0.8993,0.8996,0.9015,0.9025,0.9021,0.9041,0.905,0.9068,0.9075,0.9067,0.9101,0.9109,0.9138,0.9147,0.9153,0.9159,0.9149,0.9187,0.9191,0.9194,0.9207,0.9211,0.9155,0.9155,0.9154,0.9154,0,0.9008,0.9026,0.904,0.9059,0.907,0.909,0.9095,0.9107,0.9107,0.9111,0.9136,0.9145,0.9162,0.9169,0.9169,0.9199,0.9194,0.9187,0.9173,0.92,0.9212,0.9216,0.9156,0.9156,0.9155,0.9155,0,0,0.9042,0.9063,0.9068,0.9077,0.9093,0.9107,0.9127,0.9145,0.9155,0.9167,0.9184,0.9208,0.9202,0.9211,0.9212,0.9226,0.9253,0.9217,0.9217,0.9224,0.9288,0.9293,0.9298,0.9251,0.9252,0.9252,0.9287,0,0.9072,0.9108,0.9111,0.9143,0.9161,0.9158,0.9175,0.9187,0.9193,0.9208,0.9214,0.923,0.9221,0.9227,0.9241,0.9247,0.9266,0.9245,0.9266,0.9267,0.9263,0.9304,0.9309,0.9341,0.9291,0.9292,0.9292,0,0.9112,0.9128,0.9162,0.9177,0.9184,0.92,0.9217,0.9231,0.9245,0.9248,0.926,0.9259,0.9279,0.9266,0.9295,0.928,0.9289,0.9294,0.9295,0.9297,0.9281,0.9307,0.9351,0.9356,0.9299,0.9299,0.9298,0,0.9134,0.9163,0.9188,0.9196,0.9213,0.9225,0.9233,0.9246,0.9256,0.9271,0.9279,0.9295,0.9305,0.9318,0.9322,0.9311,0.9351,0.9337,0.9354,0.9354,0.9362,0.9361,0.9408,0.9368,0.9368,0.9368,0.9368,0,0.9168,0.9189,0.9198,0.9213,0.9237,0.9241,0.9264,0.9272,0.9284,0.93,0.9298,0.9314,0.9318,0.9334,0.9337,0.9361,0.9365,0.9368,0.9369,0.9368,0.9368,0.9374,0.9372,0.9369,0.9369,0.9368,0.9368,0,0.9196,0.9203,0.923,0.9246,0.925,0.9267,0.928,0.9295,0.9301,0.9321,0.9327,0.9336,0.9355,0.936,0.9383,0.9385,0.9413,0.9412,0.9409,0.9409,0.9426,0.9424,0.9478,0.9486,0.944,0.9441,0.9441,0,0.9217,0.9233,0.9251,0.9263,0.9271,0.9289,0.9301,0.9306,0.9318,0.9336,0.9348,0.9368,0.9383,0.9414,0.9423,0.944,0.9439,0.9457,0.9442,0.9441,0.944,0.9439,0.9441,0.946,0.946,0.946,0.9461,0,0.9253,0.9256,0.9273,0.9292,0.9307,0.9321,0.9336,0.9345,0.9352,0.9366,0.9386,0.9398,0.9423,0.9442,0.946,0.9468,0.9466,0.9466,0.9471,0.947,0.9468,0.947,0.9417,0.9464,0.9464,0.9464,0.9463,0.9463,0.9278,0.9293,0.9309,0.9328,0.934,0.9354,0.9369,0.9377,0.9394,0.9415,0.9417,0.9439,0.9453,0.9478,0.9487,0.9504,0.9499,0.9506,0.9508,0.9509,0.9511,0.9466,0.9508,0.9507,0.9507,0.9507,0.9507,0,0.9315,0.9325,0.9343,0.9364,0.9379,0.9377,0.9393,0.9406,0.9426,0.944,0.9456,0.948,0.9499,0.951,0.9529,0.9541,0.954,0.9546,0.9545,0.9547,0.9514,0.9508,0.9546,0.9546,0.9546,0.9546,0.9546,0.9546,0.9335,0.9361,0.9366,0.9398,0.9408,0.943,0.944,0.9453,0.9464,0.9491,0.9507,0.9515,0.9528,0.9548,0.9566,0.9568,0.9575,0.9582,0.9584,0.9553,0.9549,0.9545,0.954,0.9583,0.9583,0.9615,0.9615,0.9615]},{"header":{"parameterUnit":"m.s-1","parameterCategory":1,"la1":30.2991,"la2":30.254,"lo1":-89.0895,"lo2":-89.0444,"dy":0.0017,"dx":0.0017,"nx":28,"ny":28,"refTime":"2024-02-06T03:00:00:Z","depth":0,"parameterNumber":3,"parameterNumberName":"V-component_of_WINDS"},"data":[0,0,0,0,0,0,0,0,0,0,0,0,0,0,0,0,0,0,0,0,0,0,0,0,0,0,0,0,0,0,0,0,0,0,0,0,0,0,0,0,0,0,0,0,0,0,0,0,0,0,0,0,0,0,0,0,0,0,-2.8669,-2.8669,0,-2.8694,-2.8694,-2.8695,-2.8675,-2.8675,-2.8674,-2.8673,-2.8697,-2.8698,-2.87,0,0,0,0,0,0,0,0,0,0,0,0,0,-2.8603,-2.8605,-2.8669,-2.8669,-2.8669,-2.8694,-2.8694,-2.8695,-2.8675,-2.8674,-2.8673,-2.8673,-2.8697,-2.8698,-2.87,0,0,0,0,0,0,0,0,0,0,0,0,0,-2.863,-2.8605,-2.8669,-2.8663,-2.8662,-2.8694,-2.8694,-2.8695,-2.8676,-2.8674,-2.8673,-2.8672,-2.8696,-2.8698,-2.87,-2.8738,0,0,-2.8707,-2.8708,0,0,0,0,0,0,0,0,-2.8629,-2.8633,-2.8663,-2.8663,-2.8663,-2.868,-2.868,-2.8709,-2.8676,-2.8671,-2.8673,-2.8671,-2.8692,-2.8695,-2.8702,-2.8739,-2.874,-2.8707,-2.8708,-2.8709,-2.871,0,0,0,0,0,0,0,-2.8627,-2.8632,-2.8679,-2.8664,-2.8664,-2.8659,-2.8661,-2.8685,-2.8688,-2.8671,-2.867,-2.8673,-2.8692,-2.87,-2.8702,-2.8741,-2.8707,-2.8709,-2.871,-2.8711,-2.8812,-2.8813,0,0,0,0,0,0,-2.8626,-2.863,-2.8678,-2.8679,-2.8643,-2.8661,-2.8664,-2.8676,-2.8688,-2.8688,-2.8674,-2.8672,-2.8697,-2.87,-2.8703,-2.8749,-2.8709,-2.8711,-2.8712,-2.881,-2.8812,-2.8814,0,0,0,0,0,0,-2.8625,-2.863,-2.8677,-2.8655,-2.866,-2.8663,-2.8677,-2.8677,-2.8685,-2.869,-2.869,-2.8682,-2.8696,-2.87,-2.873,-2.875,-2.8712,-2.8714,-2.8809,-2.8811,-2.8813,-2.8841,0,0,0,0,0,0,-2.8623,-2.863,-2.8644,-2.8655,-2.8661,-2.8703,-2.8678,-2.8678,-2.8689,-2.8687,-2.8698,-2.8698,-2.8696,-2.8727,-2.8732,-2.8752,-2.8715,-2.8807,-2.881,-2.8812,-2.8839,-2.8844,-2.8849,0,0,0,0,0,-2.8621,-2.8651,-2.8645,-2.8651,-2.8679,-2.8704,-2.8708,-2.8705,-2.8691,-2.8705,-2.8709,-2.8698,-2.8747,-2.873,-2.8736,-2.8757,-2.8806,-2.8809,-2.8812,-2.8836,-2.8843,-2.8849,0,0,0,0,0,0,-2.8641,-2.8652,-2.8646,-2.868,-2.8692,-2.8701,-2.8719,-2.8712,-2.8727,-2.8724,-2.8719,-2.8722,-2.8753,-2.8758,-2.8739,-2.8795,-2.8774,-2.8778,-2.8791,-2.8797,-2.8802,-2.88,-2.8717,0,0,0,0,0,-2.865,-2.8669,-2.8678,-2.8707,-2.8713,-2.8716,-2.8726,-2.8723,-2.8735,-2.8739,-2.8745,-2.8756,-2.8774,-2.8786,-2.8803,-2.8839,-2.8842,-2.8857,-2.8862,-2.8866,-2.887,-2.8891,-2.8898,-2.8824,-2.8824,-2.8824,0,0,-2.8667,-2.8676,-2.8688,-2.8712,-2.872,-2.8741,-2.872,-2.8742,-2.8757,-2.8742,-2.8771,-2.8776,-2.8788,-2.8822,-2.8837,-2.8827,-2.8891,-2.887,-2.8873,-2.8875,-2.8895,-2.8902,-2.8908,-2.8826,-2.8826,-2.8825,0,0,-2.871,-2.8718,-2.8744,-2.8754,-2.8768,-2.8769,-2.8776,-2.8787,-2.879,-2.8819,-2.8809,-2.8827,-2.8858,-2.8867,-2.8876,-2.8926,-2.8916,-2.8931,-2.8958,-2.8978,-2.8984,-2.8989,-2.9008,-2.9014,-2.8935,-2.8935,-2.8935,0,-2.873,-2.8761,-2.8759,-2.8782,-2.8793,-2.8782,-2.8809,-2.8818,-2.8836,-2.8844,-2.8833,-2.8873,-2.888,-2.8917,-2.8929,-2.8936,-2.8944,-2.8929,-2.8984,-2.8989,-2.8994,-2.9011,-2.9018,-2.8937,-2.8937,-2.8936,-2.8936,0,-2.8785,-2.8807,-2.8827,-2.8846,-2.8859,-2.8884,-2.8886,-2.89,-2.8896,-2.8899,-2.893,-2.8939,-2.8958,-2.8966,-2.8962,-2.9003,-2.8996,-2.8984,-2.8963,-2.9002,-2.9019,-2.9025,-2.8939,-2.8939,-2.8938,-2.8938,0,0,-2.884,-2.8859,-2.8867,-2.8876,-2.8891,-2.8908,-2.8933,-2.8953,-2.8965,-2.8979,-2.9,-2.9028,-2.9018,-2.9028,-2.9025,-2.9043,-2.9083,-2.9029,-2.903,-2.9039,-2.9129,-2.9138,-2.9146,-2.9077,-2.9079,-2.908,-2.9128,0,-2.8884,-2.8928,-2.8928,-2.8969,-2.899,-2.8981,-2.9003,-2.9015,-2.9019,-2.9037,-2.9041,-2.9061,-2.9046,-2.9052,-2.907,-2.9074,-2.9101,-2.9071,-2.9097,-2.9098,-2.9094,-2.9154,-2.9163,-2.9209,-2.9135,-2.9136,-2.9136,0,-2.894,-2.8957,-2.9001,-2.9015,-2.9024,-2.9044,-2.9063,-2.908,-2.9094,-2.9096,-2.9109,-2.9104,-2.913,-2.9109,-2.9145,-2.9124,-2.9135,-2.9139,-2.9141,-2.9143,-2.9119,-2.9158,-2.9223,-2.923,-2.9146,-2.9145,-2.9145,0,-2.8976,-2.901,-2.9041,-2.9049,-2.9066,-2.9081,-2.9088,-2.9101,-2.9114,-2.9131,-2.9139,-2.9158,-2.9169,-2.9184,-2.9184,-2.9169,-2.9221,-2.92,-2.9223,-2.9224,-2.9234,-2.9233,-2.9302,-2.9241,-2.9241,-2.9241,-2.9241,0,-2.9025,-2.9052,-2.9058,-2.9076,-2.9107,-2.9107,-2.9137,-2.9143,-2.9155,-2.9176,-2.9169,-2.9188,-2.9188,-2.9207,-2.9208,-2.9238,-2.9243,-2.9245,-2.9245,-2.9246,-2.9246,-2.9252,-2.9249,-2.9243,-2.9243,-2.9242,-2.9242,0,-2.907,-2.9075,-2.9108,-2.9122,-2.9127,-2.9149,-2.9161,-2.9179,-2.9183,-2.9209,-2.9215,-2.9222,-2.9245,-2.9247,-2.9273,-2.9274,-2.9311,-2.9307,-2.9306,-2.9306,-2.9329,-2.9327,-2.9405,-2.9415,-2.9348,-2.9348,-2.9349,0,-2.9101,-2.9122,-2.9139,-2.9153,-2.9162,-2.9183,-2.9197,-2.9198,-2.9212,-2.9231,-2.9247,-2.927,-2.9288,-2.9325,-2.9332,-2.9352,-2.9349,-2.9375,-2.9352,-2.9353,-2.935,-2.9349,-2.9351,-2.9379,-2.938,-2.9381,-2.9381,0,-2.9155,-2.9157,-2.9177,-2.9198,-2.9215,-2.9231,-2.9247,-2.9258,-2.9262,-2.9278,-2.9302,-2.9316,-2.9344,-2.9367,-2.9388,-2.9396,-2.9389,-2.9389,-2.9395,-2.9396,-2.9395,-2.9397,-2.9319,-2.9386,-2.9386,-2.9386,-2.9385,-2.9385,-2.9194,-2.9213,-2.9228,-2.9251,-2.9264,-2.9279,-2.9298,-2.9305,-2.9325,-2.9349,-2.9348,-2.9375,-2.939,-2.9418,-2.9427,-2.9448,-2.944,-2.9449,-2.9451,-2.9454,-2.9456,-2.9392,-2.9452,-2.9452,-2.9452,-2.9451,-2.9451,0,-2.9248,-2.9258,-2.928,-2.9303,-2.9321,-2.9315,-2.9332,-2.9348,-2.9372,-2.9387,-2.9406,-2.9434,-2.9457,-2.9466,-2.9489,-2.9504,-2.9501,-2.951,-2.9508,-2.951,-2.9462,-2.9455,-2.9511,-2.9511,-2.9511,-2.9511,-2.9511,-2.9511,-2.9278,-2.931,-2.9315,-2.9353,-2.9363,-2.939,-2.9401,-2.9415,-2.9427,-2.946,-2.9479,-2.9486,-2.9499,-2.9523,-2.9543,-2.9546,-2.9554,-2.9564,-2.9565,-2.952,-2.9514,-2.9508,-2.9501,-2.9566,-2.9566,-2.9611,-2.9611,-2.9612]}]]